Location: Unspecified
(0.0000°N, 0.0000°E)
Time: 19:00:41
(UTC+00:00)

deb r/b Ablestar - Pass Details

Date: 23 April 2026
Orbit: 907 x 1192 km, 66.9° (Epoch: 12 May)

Event Time Altitude Azimuth Distance (km) Brightness Sun altitude
Rises 21:15:21 0° 328° (NNW) 4,037 ? -47.7°
Reaches altitude 10° 21:18:14 10° 322° (NW) 3,051 ? -48.3°
Enters shadow 21:20:05 18° 315° (NW) 2,460 ? -48.8°
